When you browse on this site, cookies collect data to enhance your experience and personalize the content and advertising you see.
Visit our Privacy Policy to learn more. By continuing to use the site, you agree to this use of cookies and data.
  • In Romania
  • List of Countries
  • For 7 days
  • Water Temperature
  • Satellite Maps
  • Weather Map
  • Weather Widgets
  • user-avatar
    Login

    Hourly Weather Abancay

    Today, 25 May, Saturday

    Time Temperature Precipitation Wind Pressure Humidity
    00:00 +8°C° 0 mm 1 mps 542 mmHg 82%
    01:00 +8°C° 0 mm 1 mps 542 mmHg 81%
    02:00 +8°C° 0 mm 1 mps 542 mmHg 81%
    03:00 +8°C° 0 mm 1 mps 542 mmHg 80%
    04:00 +7°C° 0 mm 1 mps 541 mmHg 79%
    05:00 +8°C° 0 mm 1 mps 542 mmHg 75%
    06:00 +9°C° 0 mm 1 mps 543 mmHg 70%
    07:00 +10°C° 0 mm 1 mps 544 mmHg 66%
    08:00 +13°C° 0 mm 1 mps 545 mmHg 56%
    09:00 +16°C° 0 mm 2 mps 546 mmHg 46%
    10:00 +19°C° 0 mm 2 mps 548 mmHg 35%
    11:00 +20°C° 0 mm 2 mps 548 mmHg 33%
    12:00 +21°C° 0 mm 3 mps 547 mmHg 31%
    13:00 +22°C° 0 mm 3 mps 547 mmHg 29%
    14:00 +21°C° 0 mm 3 mps 547 mmHg 31%
    15:00 +21°C° 0 mm 3 mps 546 mmHg 33%
    16:00 +20°C° 0 mm 3 mps 545 mmHg 35%
    17:00 +17°C° 0 mm 2 mps 544 mmHg 49%
    18:00 +13°C° 0 mm 2 mps 543 mmHg 63%
    19:00 +10°C° 0 mm 1 mps 541 mmHg 78%
    20:00 +9°C° 0 mm 1 mps 542 mmHg 79%
    21:00 +9°C° 0 mm 1 mps 542 mmHg 81%
    22:00 +8°C° 0 mm 0 mps 542 mmHg 82%
    23:00 +8°C° 0 mm 1 mps 542 mmHg 81%

    Tomorrow, 26 May, Sunday

    Time Temperature Precipitation Wind Pressure Humidity
    00:00 +8°C° 0 mm 1 mps 542 mmHg 81%
    01:00 +8°C° 0 mm 1 mps 542 mmHg 80%
    02:00 +8°C° 0 mm 1 mps 542 mmHg 80%
    03:00 +8°C° 0 mm 1 mps 541 mmHg 80%
    04:00 +8°C° 0 mm 1 mps 541 mmHg 80%
    05:00 +8°C° 0 mm 1 mps 542 mmHg 76%
    06:00 +9°C° 0 mm 1 mps 543 mmHg 73%
    07:00 +10°C° 0 mm 1 mps 544 mmHg 69%
    08:00 +13°C° 0 mm 1 mps 545 mmHg 58%
    09:00 +18°C° 0 mm 1 mps 547 mmHg 48%
    10:00 +21°C° 0 mm 1 mps 548 mmHg 37%
    11:00 +21°C° 0 mm 2 mps 548 mmHg 34%
    12:00 +22°C° 0 mm 3 mps 548 mmHg 31%
    13:00 +24°C° 0 mm 3 mps 548 mmHg 28%
    14:00 +22°C° 0 mm 3 mps 547 mmHg 31%
    15:00 +22°C° 0 mm 3 mps 546 mmHg 34%
    16:00 +21°C° 0 mm 3 mps 545 mmHg 37%
    17:00 +18°C° 0 mm 3 mps 544 mmHg 51%
    18:00 +14°C° 0 mm 2 mps 543 mmHg 64%
    19:00 +11°C° 0 mm 1 mps 542 mmHg 78%
    20:00 +10°C° 0 mm 1 mps 542 mmHg 79%
    21:00 +10°C° 0 mm 1 mps 543 mmHg 80%
    22:00 +9°C° 0 mm 1 mps 543 mmHg 81%
    23:00 +9°C° 0 mm 1 mps 543 mmHg 81%

    Day after tomorrow, 27 May, Monday

    Time Temperature Precipitation Wind Pressure Humidity
    00:00 +9°C° 0 mm 1 mps 542 mmHg 81%
    01:00 +8°C° 0 mm 0 mps 542 mmHg 81%
    02:00 +9°C° 0 mm 1 mps 542 mmHg 81%
    03:00 +8°C° 0 mm 1 mps 541 mmHg 82%
    04:00 +8°C° 0 mm 1 mps 541 mmHg 82%
    05:00 +9°C° 0 mm 1 mps 542 mmHg 79%
    06:00 +9°C° 0 mm 1 mps 542 mmHg 76%
    07:00 +9°C° 0 mm 2 mps 543 mmHg 73%
    08:00 +13°C° 0 mm 1 mps 545 mmHg 60%
    09:00 +18°C° 0 mm 1 mps 546 mmHg 47%
    10:00 +21°C° 0 mm 1 mps 548 mmHg 35%
    11:00 +21°C° 0 mm 2 mps 548 mmHg 31%
    12:00 +23°C° 0 mm 2 mps 547 mmHg 27%
    13:00 +25°C° 0 mm 3 mps 547 mmHg 23%
    14:00 +24°C° 0 mm 3 mps 546 mmHg 26%
    15:00 +22°C° 0 mm 3 mps 546 mmHg 28%
    16:00 +22°C° 0 mm 3 mps 545 mmHg 31%
    17:00 +18°C° 0 mm 3 mps 544 mmHg 46%
    18:00 +14°C° 0 mm 2 mps 543 mmHg 61%
    19:00 +11°C° 0 mm 1 mps 542 mmHg 76%
    20:00 +10°C° 0 mm 1 mps 542 mmHg 79%
    21:00 +10°C° 0 mm 1 mps 542 mmHg 81%
    22:00 +10°C° 0 mm 1 mps 543 mmHg 83%
    23:00 +9°C° 0 mm 1 mps 542 mmHg 83%

    28 May, Tuesday

    Time Temperature Precipitation Wind Pressure Humidity
    00:00 +9°C° 0 mm 1 mps 542 mmHg 83%
    01:00 +9°C° 0 mm 1 mps 542 mmHg 84%
    02:00 +9°C° 0 mm 1 mps 541 mmHg 83%
    03:00 +9°C° 0 mm 1 mps 541 mmHg 83%
    04:00 +9°C° 0 mm 1 mps 541 mmHg 82%
    05:00 +9°C° 0 mm 1 mps 542 mmHg 78%
    06:00 +10°C° 0 mm 1 mps 542 mmHg 74%
    07:00 +10°C° 0 mm 2 mps 543 mmHg 70%
    08:00 +14°C° 0 mm 2 mps 545 mmHg 58%
    09:00 +17°C° 0 mm 2 mps 546 mmHg 46%
    10:00 +20°C° 0 mm 2 mps 548 mmHg 33%
    11:00 +21°C° 0 mm 2 mps 548 mmHg 31%
    12:00 +22°C° 0 mm 3 mps 547 mmHg 29%
    13:00 +24°C° 0 mm 3 mps 547 mmHg 27%
    14:00 +24°C° 0 mm 3 mps 546 mmHg 30%
    15:00 +22°C° 0 mm 3 mps 546 mmHg 34%
    16:00 +21°C° 0 mm 3 mps 545 mmHg 37%
    17:00 +18°C° 0 mm 3 mps 544 mmHg 51%
    18:00 +15°C° 0 mm 2 mps 543 mmHg 65%
    19:00 +11°C° 0 mm 1 mps 542 mmHg 79%
    20:00 +11°C° 0 mm 1 mps 542 mmHg 80%
    21:00 +11°C° 0 mm 1 mps 543 mmHg 82%
    22:00 +11°C° 0 mm 1 mps 543 mmHg 83%
    23:00 +10°C° 0 mm 1 mps 543 mmHg 83%

    29 May, Wednesday

    Time Temperature Precipitation Wind Pressure Humidity
    00:00 +10°C° 0 mm 1 mps 542 mmHg 83%
    01:00 +10°C° 0 mm 1 mps 542 mmHg 83%
    02:00 +10°C° 0 mm 1 mps 542 mmHg 83%
    03:00 +10°C° 0 mm 1 mps 542 mmHg 83%
    04:00 +10°C° 0 mm 1 mps 542 mmHg 83%
    05:00 +11°C° 0 mm 1 mps 543 mmHg 79%
    06:00 +11°C° 0 mm 1 mps 543 mmHg 75%
    07:00 +12°C° 0 mm 1 mps 544 mmHg 72%
    08:00 +15°C° 0 mm 1 mps 546 mmHg 62%
    09:00 +19°C° 0 mm 1 mps 547 mmHg 51%
    10:00 +22°C° 0 mm 1 mps 548 mmHg 41%
    11:00 +23°C° 0 mm 2 mps 548 mmHg 38%
    12:00 +24°C° 0 mm 3 mps 548 mmHg 34%
    13:00 +25°C° 0 mm 3 mps 547 mmHg 31%
    14:00 +24°C° 0 mm 3 mps 547 mmHg 33%
    15:00 +24°C° 0 mm 3 mps 546 mmHg 35%
    16:00 +22°C° 0 mm 3 mps 545 mmHg 38%
    17:00 +19°C° 0 mm 3 mps 544 mmHg 52%
    18:00 +15°C° 0 mm 2 mps 543 mmHg 66%
    19:00 +12°C° 0 mm 1 mps 542 mmHg 80%
    20:00 +11°C° 0 mm 1 mps 542 mmHg 81%
    21:00 +11°C° 0 mm 1 mps 543 mmHg 83%
    22:00 +9°C° 0 mm 0 mps 543 mmHg 85%
    23:00 +9°C° 0 mm 0 mps 542 mmHg 85%

    30 May, Thursday

    Time Temperature Precipitation Wind Pressure Humidity
    00:00 +9°C° 0 mm 0 mps 542 mmHg 85%
    01:00 +9°C° 0 mm 0 mps 542 mmHg 85%
    02:00 +10°C° 0 mm 1 mps 542 mmHg 85%
    03:00 +10°C° 0 mm 1 mps 542 mmHg 84%
    04:00 +10°C° 0 mm 1 mps 542 mmHg 84%
    05:00 +11°C° 0 mm 1 mps 543 mmHg 81%
    06:00 +11°C° 0 mm 1 mps 543 mmHg 79%
    07:00 +12°C° 0 mm 1 mps 544 mmHg 76%
    08:00 +15°C° 0 mm 1 mps 546 mmHg 63%
    09:00 +19°C° 0 mm 1 mps 547 mmHg 50%
    10:00 +22°C° 0 mm 1 mps 548 mmHg 37%
    11:00 +23°C° 0 mm 1 mps 548 mmHg 33%
    12:00 +24°C° 0 mm 2 mps 548 mmHg 29%
    13:00 +25°C° 0 mm 3 mps 548 mmHg 26%
    14:00 +25°C° 0 mm 3 mps 547 mmHg 28%
    15:00 +24°C° 0 mm 3 mps 546 mmHg 31%
    16:00 +22°C° 0 mm 3 mps 546 mmHg 33%
    17:00 +19°C° 0 mm 3 mps 545 mmHg 47%
    18:00 +15°C° 0 mm 2 mps 544 mmHg 61%
    19:00 +12°C° 0 mm 1 mps 542 mmHg 76%
    20:00 +11°C° 0 mm 1 mps 542 mmHg 77%
    21:00 +11°C° 0 mm 1 mps 542 mmHg 79%
    22:00 +9°C° 0 mm 0 mps 542 mmHg 80%
    23:00 +10°C° 0 mm 1 mps 542 mmHg 80%
    Show more